Flag for Germany Weather past 2 weeks in Hanau, Hesse, Germany

Now
59 °F

Passing clouds.


Feels Like: 57 °F
Forecast: 49 / 70 °F
Wind: 12 mph from West

Location: Frankfurt-M-Flughafen Airport

Current Time: Sep 1, 2015 at 11:08:46 PM

Latest Report: Sep 1, 2015 at 10:20 PM


Visibility: N/A

Pressure: 30.04 "Hg

Humidity: 82%

Dew point: 54 °F

Location of HanauLocation

Historic Weather in Hanau — Graph

°F

Hanau temperature yesterday

Maximum temperature yesterday: 93 °F (at 4:50 PM)
Minimum temperature yesterday: 66 °F (at 6:20 AM)
Average temperature yesterday: 79 °F

Past Weeks' High & Low Weather Summary

 TemperatureHumidityPressure
High93 °F (Aug 31, 4:50 PM)100% (Aug 19, 5:20 AM)30.27 "Hg (Aug 19, 5:20 AM)
Low50 °F (Aug 19, 4:50 AM)21% (Aug 22, 3:20 PM)29.68 "Hg (Aug 23, 5:20 PM)
Average68 °F67%30.00 "Hg
* Reported Aug 17 9:20 PM — Sep 1 9:50 PM, Hanau, Weather by CustomWeather, © 2015

Note: Actual official high and low records may vary slightly from our data, if they occured in-between our weather recording intervals... More about our weather records

Advertising

Hanau weather history for previous 24 hours

 ConditionsComfort  
Time TempWeatherWind HumidityBarometerVisibility
9:50 PM
Tue, Sep 1
59 °FPassing clouds.8 mph88%30.01 "HgN/A
9:20 PM61 °FPassing clouds.8 mph83%30.01 "HgN/A
8:50 PM63 °FScattered clouds.9 mph77%30.01 "HgN/A
8:20 PM63 °FScattered clouds.10 mph77%29.98 "HgN/A
7:50 PM64 °FBroken clouds.12 mph73%29.98 "HgN/A
7:20 PM64 °FBroken clouds.9 mph78%29.98 "HgN/A
6:50 PM64 °FBroken clouds.10 mph73%29.95 "HgN/A
6:20 PM64 °FLight rain. Partly sunny.15 mph78%29.95 "HgN/A
5:50 PM64 °FLight rain. Broken clouds.12 mph78%29.95 "HgN/A
5:20 PM64 °FLight rain. Broken clouds.12 mph78%29.92 "HgN/A
4:50 PM64 °FBroken clouds.12 mph83%29.92 "HgN/A
4:20 PM64 °FBroken clouds.15 mph83%29.89 "HgN/A
3:50 PM64 °FLight rain. Partly sunny.8 mph94%29.89 "HgN/A
3:20 PM64 °FLight rain. Partly sunny.8 mph88%29.86 "Hg4 mi
2:50 PM64 °FLight rain. Partly sunny.8 mph88%29.86 "Hg4 mi
2:20 PM64 °FSprinkles. Partly sunny.12 mph88%29.83 "HgN/A
1:50 PM63 °FRain showers. Broken clouds.13 mph94%29.80 "Hg3 mi
1:20 PM72 °FScattered showers. Broken clouds.20 mph65%29.77 "HgN/A
12:50 PM79 °FBroken clouds.13 mph54%29.74 "HgN/A
12:20 PM79 °FBroken clouds.13 mph54%29.77 "HgN/A
11:50 AM75 °FBroken clouds.7 mph65%29.77 "HgN/A
11:20 AM75 °FBroken clouds.5 mph65%29.77 "HgN/A
10:50 AM73 °FBroken clouds.5 mph65%29.77 "HgN/A
10:20 AM72 °FBroken clouds.8 mph73%29.77 "HgN/A
9:50 AM72 °FBroken clouds.8 mph73%29.77 "HgN/A
9:20 AM72 °FBroken clouds.7 mph73%29.77 "HgN/A
8:50 AM72 °FPartly sunny.9 mph73%29.77 "HgN/A
8:20 AM70 °FScattered clouds.9 mph78%29.77 "HgN/A
7:50 AM70 °FScattered clouds.7 mph88%29.80 "HgN/A
7:20 AM66 °FPassing clouds.3 mph88%29.80 "HgN/A
6:50 AM66 °FPartly cloudy.2 mph94%29.80 "HgN/A
6:20 AM66 °FSprinkles. Partly cloudy.2 mph88%29.80 "HgN/A
5:50 AM66 °FSprinkles. Partly cloudy.3 mph88%29.80 "HgN/A
5:20 AM66 °FPartly cloudy.2 mph88%29.80 "HgN/A
4:50 AM66 °FClear.1 mph88%29.80 "Hg10 mi
4:20 AM68 °FClear.2 mph83%29.83 "Hg10 mi
3:50 AM66 °FClear.2 mph83%29.83 "Hg10 mi
3:20 AM68 °FClear.7 mph78%29.83 "Hg10 mi
2:50 AM72 °FClear.6 mph69%29.83 "Hg10 mi
2:20 AM70 °FPassing clouds.5 mph69%29.83 "HgN/A
1:50 AM72 °FPassing clouds.3 mph65%29.83 "HgN/A
1:20 AM70 °FClear.5 mph69%29.83 "Hg10 mi
12:50 AM70 °FPassing clouds.3 mph69%29.83 "HgN/A
12:20 AM70 °FClear.3 mph69%29.83 "Hg10 mi
11:20 PM
Mon, Aug 31
75 °FClear.6 mph54%29.80 "Hg10 mi
Weather by CustomWeather, © 2015

See weather overviewHow to use our weather pages